Home   Weather   Tarnów   Past weeks

Flag for Poland Past Weather in Tarnów, Poland — Yesterday and Last 2 Weeks

Now
69 °F

Mild.


Feels Like: 69 °F
Forecast: 51 / 73 °F
Wind: 2 mph from Southwest

Location: Tarnow

Current Time: Jul 26, 2017 at 1:00:43 pm

Latest Report: Jul 26, 2017 at 12:00 pm


Visibility: 25 mi

Pressure: 29.62 "Hg

Humidity: 51%

Dew Point: 51 °F

Location of TarnówLocation

Past Weather in Tarnów — Graph

°F

Tarnów Temperature Yesterday

Maximum temperature yesterday: 68 °F (at 12:00 am)
Minimum temperature yesterday: 60 °F (at 11:00 pm)
Average temperature yesterday: 65 °F

High & Low Weather Summary for the Past Weeks

 TemperatureHumidityPressure
High90 °F (Jul 20, 5:00 pm)100% (Jul 16, 6:00 am)30.20 "Hg (Jul 16, 6:00 am)
Low47 °F (Jul 16, 5:00 am)29% (Jul 20, 4:00 pm)29.54 "Hg (Jul 25, 6:00 am)
Average67 °F72%29.92 "Hg
* Reported Jul 11 11:00 am — Jul 26 11:00 am, Tarnów. Weather by CustomWeather, © 2017

Note: Actual official high and low records may vary slightly from our data, if they occured in-between our weather recording intervals... More about our weather records

Advertising

Tarnów Weather History for the Previous 24 Hours

Scroll right to see more
 ConditionsComfort  
Time TempWeatherWind HumidityBarometerVisibility
11:00 am
Wed, Jul 26
66 °FMild.1 mph62%29.62 "Hg28 mi
10:00 am68 °FMild.2 mph54%29.62 "Hg19 mi
9:00 am66 °FMild.2 mph60%29.62 "Hg25 mi
8:00 am63 °FMild.2 mph66%29.62 "Hg25 mi
7:00 am60 °FCool.1 mph78%29.63 "Hg14 mi
6:00 am52 °FCool.No wind93%29.62 "Hg12 mi
5:00 am52 °FCool.No wind90%29.62 "Hg8 mi
4:00 am54 °FCool.No wind89%29.62 "Hg9 mi
3:00 am57 °FCool.No wind85%29.62 "Hg16 mi
2:00 am59 °FCool.1 mph85%29.61 "Hg28 mi
1:00 am59 °FCool.No wind89%29.61 "Hg11 mi
12:00 am60 °FCool.No wind90%29.61 "Hg11 mi
11:00 pm
Tue, Jul 25
60 °FLight rain. Overcast.No wind91%29.62 "Hg6 mi
10:00 pm61 °FLight rain. Overcast.No wind85%29.62 "Hg8 mi
9:00 pm62 °FRain showers. Overcast.1 mph75%29.61 "Hg15 mi
8:00 pm64 °FDrizzle. Cloudy.1 mph71%29.60 "Hg19 mi
7:00 pm65 °FMild.2 mph69%29.60 "Hg25 mi
6:00 pm65 °FMild.2 mph72%29.59 "Hg19 mi
5:00 pm64 °FMild.2 mph74%29.60 "Hg19 mi
4:00 pm65 °FMild.3 mph74%29.60 "Hg22 mi
3:00 pm65 °FMild.1 mph82%29.61 "Hg8 mi
2:00 pm64 °FMild.2 mph84%29.60 "Hg11 mi
1:00 pm63 °FRain showers. Cloudy.2 mph88%29.59 "Hg3 mi
Weather by CustomWeather, © 2017

See weather overviewHow to use our weather pages